Wind_Speed
24 23 21 21 21 21 22 22 22 24 24 26 27 28 30 29 29 33 33 36 38 41 42 45 48 50 52 54 56 57 58 55 51 48 47 45 43 43
26 24 23 22 22 22 22 23 23 24 25 27 29 30 31 34 34 34 36 38 41 43 45 48 51 53 54 55 55 55 53 50 49 48 46 44 42 40
27 26 26 25 24 23 23 23 23 24 26 28 30 32 33 36 36 38 39 40 43 45 47 49 52 53 52 52 51 48 49 49 49 49 46 43 40 39
28 27 25 25 26 25 24 24 24 24 25 28 31 33 36 37 38 39 41 44 45 47 49 49 50 49 49 47 46 47 49 49 48 48 46 43 41 39
30 28 27 26 25 25 26 25 25 25 28 29 31 34 36 39 40 42 43 44 47 49 49 48 48 49 47 46 45 47 47 47 47 47 46 43 42 41
31 29 28 27 26 27 25 25 27 29 30 32 33 34 37 41 43 45 43 45 44 47 49 49 50 48 48 47 46 47 47 47 47 46 45 44 44 43
31 30 28 28 27 26 26 27 28 31 34 35 36 37 40 42 44 44 48 49 43 47 51 43 49 45 45 44 45 45 46 46 45 44 45 45 45 43
32 30 28 28 26 27 30 30 29 33 33 36 39 40 42 44 45 46 48 51 52 46 52 50 51 49 48 44 43 43 44 45 45 44 43 44 44 42
31 29 28 28 29 31 33 27 30 34 36 39 40 42 42 44 48 49 49 51 53 50 57 58 54 52 49 45 42 42 42 40 40 40 41 42 43 42
30 29 28 29 30 35 33 31 34 36 38 38 39 40 41 42 46 48 51 53 52 47 52 58 52 51 49 44 41 38 36 35 35 37 38 39 38 36
30 29 29 31 34 37 33 32 34 35 36 37 38 38 39 42 45 48 48 49 51 47 48 53 49 51 48 42 39 36 31 29 30 32 33 34 34 34
33 30 32 35 34 30 31 32 30 31 33 33 34 36 38 40 42 44 46 47 49 51 48 53 48 48 51 41 38 35 31 27 27 28 30 31 32 32
34 35 34 30 27 29 29 27 29 29 29 30 32 34 36 37 37 39 41 43 44 43 42 46 46 44 44 47 41 36 34 32 31 30 29 29 29 31
34 32 27 25 27 27 24 26 26 27 28 30 31 32 33 34 34 37 38 37 36 39 39 38 42 43 44 44 44 38 36 33 35 35 33 29 26 28
29 25 24 25 21 21 23 23 24 26 28 28 29 31 33 34 35 34 33 33 31 31 33 36 39 40 41 42 45 41 41 37 35 33 31 28 25 23
24 23 22 16 18 19 19 21 23 25 26 27 28 30 32 32 32 32 32 34 33 31 31 34 35 38 40 38 40 40 36 39 35 30 28 22 20 20
21 16 13 16 15 16 18 20 22 23 24 26 28 29 29 29 29 30 32 35 37 39 37 35 35 35 36 37 35 34 36 35 34 33 32 27 20 22
10 12 13 11 13 15 18 19 20 21 23 26 27 28 27 27 27 29 33 36 38 39 39 38 38 37 34 29 33 35 37 39 38 35 32 31 23 18
11 10 9 10 12 15 15 16 18 21 23 23 25 26 26 27 29 31 34 37 38 38 36 37 37 38 40 39 31 29 37 36 37 33 31 29 26 21
8 6 7 10 12 12 13 16 18 19 20 22 24 25 26 27 29 32 34 36 37 39 38 34 33 34 36 39 39 31 26 33 35 36 35 33 28 20
5 6 7 9 8 10 13 14 16 18 19 21 23 24 25 27 28 31 32 32 34 36 36 35 34 32 32 31 32 32 26 25 29 33 35 34 30 24
5 5 5 5 8 10 13 16 17 17 18 20 22 24 25 27 29 30 30 31 33 35 38 39 36 33 32 32 32 32 32 29 25 25 30 32 33 31
4 3 3 5 8 11 13 14 16 16 17 19 22 23 25 26 26 26 26 29 33 34 36 38 35 33 32 32 31 32 31 31 32 30 24 26 28 28
Wind_Direction
243 248 254 261 267 271 274 276 280 283 285 287 289 291 295 297 299 300 305 306 305 304 306 307 307 308 309 309 310 311 311 311 310 309 307 305 301 297
247 253 259 263 269 273 277 280 282 284 287 290 292 297 300 303 305 306 307 307 306 307 308 309 309 309 310 311 312 312 311 312 311 310 309 307 304 298
249 255 262 269 271 273 276 278 281 285 288 292 295 297 300 303 306 307 308 307 306 308 308 309 310 311 313 313 313 313 312 311 310 308 306 305 301 295
249 254 261 266 272 276 279 282 284 285 288 293 297 301 301 302 304 306 307 307 309 309 309 312 312 313 314 312 311 310 309 307 304 301 300 298 297 295
248 255 261 267 272 277 279 284 287 291 294 296 297 298 302 303 305 307 308 310 310 310 312 313 313 312 310 309 308 305 303 301 299 298 298 295 293 292
249 255 261 267 272 275 279 284 291 295 297 298 299 302 302 305 306 306 308 310 310 312 313 315 312 310 309 308 306 304 302 301 300 299 297 295 292 291
249 255 261 266 269 276 282 289 295 296 299 299 301 305 305 305 306 307 307 310 314 313 310 310 307 306 306 305 303 301 298 296 295 295 294 293 290 289
249 255 263 269 274 274 279 288 297 298 300 301 303 305 307 307 309 310 311 312 313 317 312 314 311 312 309 305 302 298 296 295 295 294 292 289 289 288
251 258 264 270 275 279 285 295 295 296 298 299 305 306 308 310 311 315 316 318 319 321 316 316 315 314 310 308 304 301 298 297 295 292 288 287 287 288
252 258 266 276 279 282 285 284 293 296 299 305 306 310 311 314 316 318 319 319 320 321 315 313 314 312 310 312 309 306 303 298 292 289 288 289 292 292
250 259 268 272 274 283 291 297 297 300 304 306 309 313 317 320 320 319 318 319 320 323 319 315 318 316 315 317 309 315 319 310 300 297 295 294 295 295
247 254 260 264 275 288 291 293 300 303 305 310 314 317 320 320 320 322 324 327 327 326 327 323 325 324 322 325 322 327 324 318 312 308 304 303 303 300
243 249 256 270 283 286 290 298 301 304 307 312 318 321 321 321 325 327 330 333 334 334 333 328 333 332 328 328 331 334 331 328 325 319 313 310 305 300
245 254 263 275 280 285 296 300 303 308 314 319 321 321 322 325 329 333 338 343 343 341 340 334 335 333 331 330 330 335 332 331 327 324 318 314 309 304
248 257 269 274 284 297 297 302 308 316 319 322 323 324 328 331 335 339 342 344 346 341 336 333 331 329 328 328 327 334 330 329 326 323 318 318 315 307
249 261 269 285 289 292 300 308 316 321 323 323 327 331 333 335 335 338 341 341 341 342 339 333 330 329 327 328 327 329 327 324 329 327 324 330 327 315
252 259 277 277 288 298 309 318 322 323 325 329 332 333 334 335 337 339 340 341 341 339 338 334 329 325 325 325 327 329 325 327 331 336 334 334 338 319
253 265 268 281 298 311 316 320 323 325 328 331 333 336 337 337 340 342 342 339 339 338 336 331 328 327 329 333 332 336 330 331 332 334 330 325 331 320
244 254 274 296 308 312 316 321 324 328 330 333 338 339 339 342 342 341 341 340 339 338 339 336 332 328 327 330 341 345 328 327 325 329 330 328 327 329
233 260 291 304 309 312 319 325 328 331 336 341 341 341 343 342 341 342 343 341 342 345 345 342 337 335 335 333 336 343 333 329 332 331 328 327 331 332
243 275 291 298 313 325 329 331 335 339 339 340 342 341 340 339 340 342 342 345 348 346 349 351 347 341 335 333 336 342 347 342 338 332 327 330 332 332
244 272 290 324 335 336 340 339 338 340 339 338 338 339 337 337 340 340 340 344 350 351 356 356 352 349 347 348 348 347 350 349 350 345 332 331 330 329
246 271 328 338 342 345 339 338 339 339 336 335 334 334 334 334 334 334 336 344 347 350 356 356 360 0 357 356 353 350 354 354 351 353 352 337 333 328
Height
3139 3140 3141 3141 3142 3142 3141 3140 3139 3138 3137 3135 3133 3131 3129 3125 3121 3120 3115 3113 3109 3105 3098 3093 3089 3082 3076 3070 3063 3057 3050 3045 3039 3034 3029 3024 3021 3016
3135 3136 3137 3137 3137 3137 3137 3136 3135 3134 3132 3129 3127 3125 3122 3121 3116 3113 3109 3105 3101 3094 3089 3084 3078 3072 3065 3058 3051 3044 3037 3031 3025 3020 3016 3013 3009 3006
3130 3131 3132 3133 3132 3132 3131 3130 3129 3128 3127 3124 3121 3118 3115 3113 3109 3103 3100 3096 3092 3085 3079 3074 3067 3060 3053 3046 3039 3032 3025 3020 3014 3009 3006 3003 2999 2996
3125 3126 3127 3126 3127 3127 3126 3125 3123 3122 3121 3118 3114 3111 3107 3103 3100 3096 3092 3086 3081 3076 3069 3063 3055 3048 3041 3035 3029 3022 3014 3009 3004 2999 2995 2991 2988 2985
3120 3121 3122 3121 3121 3121 3120 3119 3117 3116 3114 3112 3108 3105 3100 3095 3091 3086 3083 3077 3070 3064 3057 3051 3044 3038 3032 3027 3020 3012 3006 2999 2994 2989 2986 2981 2977 2973
3115 3116 3116 3116 3116 3115 3114 3112 3111 3109 3106 3104 3102 3098 3093 3088 3083 3079 3075 3069 3063 3056 3048 3041 3035 3029 3021 3016 3008 3001 2994 2988 2981 2977 2973 2969 2965 2962
3109 3110 3111 3111 3110 3110 3109 3107 3105 3102 3100 3097 3094 3090 3085 3081 3075 3070 3063 3057 3055 3046 3038 3037 3026 3021 3013 3006 2998 2991 2983 2976 2970 2965 2960 2956 2953 2951
3104 3105 3106 3106 3105 3105 3103 3099 3098 3096 3093 3090 3085 3081 3076 3070 3064 3058 3051 3044 3040 3039 3026 3021 3011 3006 2999 2993 2987 2980 2972 2965 2959 2955 2950 2945 2942 2939
3099 3100 3101 3100 3101 3100 3097 3094 3092 3090 3087 3083 3078 3072 3066 3060 3053 3046 3039 3033 3026 3022 3011 3002 2996 2992 2987 2982 2975 2967 2960 2954 2949 2944 2938 2934 2930 2928
3094 3094 3095 3096 3095 3093 3089 3087 3086 3083 3079 3074 3070 3064 3058 3051 3044 3036 3028 3023 3018 3014 3001 2991 2987 2981 2974 2971 2964 2955 2949 2943 2937 2932 2927 2922 2919 2916
3088 3089 3089 3089 3088 3086 3083 3082 3078 3075 3073 3068 3062 3056 3049 3043 3035 3029 3023 3016 3007 3003 2992 2982 2977 2968 2963 2961 2954 2946 2940 2935 2929 2923 2917 2912 2908 2905
3082 3081 3081 3081 3081 3079 3077 3074 3072 3069 3066 3062 3056 3049 3042 3036 3029 3022 3013 3005 2997 2989 2979 2970 2966 2956 2948 2950 2944 2938 2931 2926 2921 2916 2909 2903 2899 2896
3072 3073 3074 3075 3074 3073 3071 3068 3067 3062 3058 3055 3050 3044 3037 3032 3024 3016 3007 2999 2991 2985 2975 2963 2959 2953 2945 2934 2935 2930 2924 2918 2912 2907 2903 2898 2893 2888
3066 3069 3069 3068 3067 3067 3065 3061 3059 3055 3051 3047 3044 3039 3034 3027 3019 3011 3002 2996 2988 2979 2972 2964 2956 2949 2941 2934 2928 2926 2919 2914 2905 2900 2895 2892 2888 2882
3063 3064 3063 3062 3061 3060 3057 3055 3052 3048 3046 3041 3037 3033 3026 3019 3011 3005 2998 2993 2987 2979 2972 2963 2955 2948 2940 2931 2923 2918 2911 2906 2902 2895 2890 2886 2880 2876
3057 3057 3057 3057 3056 3054 3052 3049 3046 3041 3040 3036 3031 3025 3018 3013 3006 2999 2994 2988 2983 2979 2972 2961 2953 2944 2937 2930 2922 2915 2909 2899 2896 2891 2884 2880 2876 2870
3051 3052 3052 3051 3050 3048 3046 3043 3039 3037 3034 3029 3024 3019 3014 3009 3002 2996 2989 2983 2975 2968 2963 2957 2950 2943 2935 2925 2919 2913 2903 2897 2891 2884 2877 2873 2872 2866
3046 3048 3047 3046 3045 3043 3040 3038 3035 3032 3029 3024 3019 3015 3010 3004 2999 2992 2985 2979 2972 2965 2957 2949 2942 2934 2929 2926 2915 2906 2898 2890 2884 2880 2875 2868 2866 2864
3043 3043 3042 3042 3040 3038 3037 3034 3032 3028 3024 3020 3015 3010 3006 3000 2993 2988 2982 2975 2969 2962 2954 2944 2935 2927 2918 2911 2912 2906 2893 2888 2880 2875 2870 2865 2860 2858
3039 3039 3038 3037 3036 3035 3032 3030 3027 3023 3019 3015 3010 3006 3001 2996 2990 2984 2979 2971 2965 2958 2951 2943 2934 2925 2916 2907 2900 2900 2895 2883 2876 2869 2863 2858 2856 2854
3035 3035 3035 3034 3032 3030 3028 3026 3022 3019 3015 3012 3008 3003 2998 2993 2988 2981 2977 2972 2964 2957 2949 2939 2931 2923 2916 2909 2901 2894 2891 2885 2877 2867 2859 2853 2848 2846
3032 3032 3031 3029 3028 3027 3024 3021 3018 3014 3011 3008 3004 3000 2996 2990 2984 2979 2975 2969 2962 2954 2944 2936 2928 2920 2912 2905 2898 2891 2885 2880 2876 2869 2859 2852 2845 2839
3029 3029 3028 3027 3025 3022 3021 3018 3015 3011 3008 3004 3001 2997 2992 2988 2983 2979 2974 2966 2958 2951 2943 2936 2928 2921 2912 2905 2898 2891 2885 2878 2870 2865 2861 2852 2845 2839